Weather History for Holyoke AP, Holyoke, CO, CO

Change the Weather History Date:

Wednesday, December 25, 2013

  Actual Average Record
Temperature  
Mean Temperature 32 °F -  
Max Temperature 46 °F 39 °F 46 °F (2013)
Min Temperature 19 °F 13 °F 19 °F (2013)
Degree Days  
Heating Degree Days 32    
Moisture  
Dew Point 18 °F    
Average Humidity 61    
Maximum Humidity 93    
Minimum Humidity 27    
Precipitation  
Precipitation 0.00 in - - ()
Sea Level Pressure  
Sea Level Pressure 30.29 in    
Wind  
Wind Speed 10 mph (WNW)    
Max Wind Speed 21 mph    
Max Gust Speed 26 mph    
Visibility 10 miles    
Events      
Averages and records for this station are not official NWS values.
T = Trace of Precipitation, MM = Missing Value Source: NWS Daily Summary

Daily Weather History Graph

Daily Weather History Graph

Search for Another Location

Airport:

Trip Planner

Search our weather history database for the weather conditions in past years. The results will help you decide how hot, cold, wet, or windy it might be!

Date:

Astronomy

Dec. 25, 2013 Rise Set
Actual Time 7:11 AM MST 4:27 PM MST
Civil Twilight 6:40 AM MST 4:58 PM MST
Nautical Twilight 6:05 AM MST 5:33 PM MST
Astronomical Twilight 5:32 AM MST 6:06 PM MST
Moon No Moon Rise 11:34 AM MST (12/25)
Length of Visible Light 10h 18m
Length of Day
9h 16m
Waning Gibbous, 48% of the Moon is Illuminated
Dec 25
Waning Gibbous
Jan 1
New
Jan 7
First Quarter
Jan 15
Full
Jan 23
Last Quarter

Hourly Weather History & Observations

Time (MST) Temp. Windchill Dew Point Humidity Pressure Visibility Wind Dir Wind Speed Gust Speed Precip Events Conditions
12:15 AM 23.0 °F 15.8 °F 19.4 °F 86% 30.28 in 10.0 mi West 5.8 mph - N/A   Clear
12:35 AM 19.4 °F 10.4 °F 15.8 °F 86% 30.28 in 10.0 mi SW 6.9 mph - N/A   Clear
12:55 AM 21.2 °F 13.6 °F 19.4 °F 93% 30.27 in 10.0 mi West 5.8 mph - N/A   Clear
1:15 AM 21.2 °F 11.7 °F 17.6 °F 86% 30.27 in 10.0 mi WSW 8.1 mph - N/A   Clear
1:35 AM 21.2 °F 12.6 °F 19.4 °F 93% 30.27 in 10.0 mi West 6.9 mph - N/A   Clear
1:55 AM 21.2 °F 11.7 °F 19.4 °F 93% 30.28 in 10.0 mi West 8.1 mph - N/A   Clear
2:15 AM 21.2 °F 11.7 °F 17.6 °F 86% 30.28 in 10.0 mi West 8.1 mph - N/A   Clear
2:35 AM 21.2 °F 11.7 °F 17.6 °F 86% 30.28 in 10.0 mi West 8.1 mph - N/A   Clear
2:55 AM 21.2 °F 10.1 °F 17.6 °F 86% 30.28 in 10.0 mi West 10.4 mph - N/A   Clear
3:15 AM 21.2 °F 10.9 °F 17.6 °F 86% 30.28 in 10.0 mi West 9.2 mph - N/A   Clear
3:35 AM 26.6 °F 15.7 °F 19.4 °F 74% 30.28 in 10.0 mi West 12.7 mph - N/A   Clear
3:55 AM 26.6 °F 15.2 °F 19.4 °F 74% 30.28 in 10.0 mi WNW 13.8 mph 17.3 mph N/A   Clear
4:15 AM 32.0 °F 20.5 °F 21.2 °F 64% 30.28 in 10.0 mi WNW 18.4 mph 26.5 mph N/A   Clear
4:35 AM 32.0 °F 21.2 °F 21.2 °F 64% 30.29 in 10.0 mi WNW 16.1 mph 21.9 mph N/A   Clear
4:55 AM 30.2 °F 19.8 °F 19.4 °F 64% 30.30 in 10.0 mi WNW 13.8 mph 20.7 mph N/A   Clear
5:15 AM 30.2 °F 19.3 °F 19.4 °F 64% 30.30 in 10.0 mi WNW 15.0 mph 21.9 mph N/A   Clear
5:35 AM 30.2 °F 20.2 °F 19.4 °F 64% 30.31 in 10.0 mi WNW 12.7 mph 18.4 mph N/A   Clear
5:55 AM 30.2 °F 19.8 °F 19.4 °F 64% 30.32 in 10.0 mi WNW 13.8 mph 19.6 mph N/A   Clear
6:15 AM 32.0 °F 21.6 °F 19.4 °F 60% 30.32 in 10.0 mi WNW 15.0 mph 21.9 mph N/A   Clear
6:35 AM 30.2 °F 20.2 °F 19.4 °F 64% 30.33 in 10.0 mi WNW 12.7 mph 20.7 mph N/A   Clear
6:55 AM 30.2 °F 21.3 °F 19.4 °F 64% 30.34 in 10.0 mi WNW 10.4 mph - N/A   Clear
7:15 AM 26.6 °F 16.8 °F 17.6 °F 69% 30.34 in 10.0 mi WNW 10.4 mph - N/A   Clear
7:35 AM 26.6 °F 16.8 °F 17.6 °F 69% 30.35 in 10.0 mi WNW 10.4 mph - N/A   Clear
7:55 AM 28.4 °F 18.5 °F 17.6 °F 64% 30.35 in 10.0 mi WNW 11.5 mph - N/A   Clear
8:15 AM 32.0 °F 23.0 °F 19.4 °F 60% 30.36 in 10.0 mi WNW 11.5 mph 18.4 mph N/A   Clear
8:35 AM 33.8 °F 25.3 °F 21.2 °F 60% 30.37 in 10.0 mi WNW 11.5 mph 20.7 mph N/A   Clear
8:55 AM 33.8 °F 24.3 °F 19.4 °F 56% 30.37 in 10.0 mi WNW 13.8 mph 19.6 mph N/A   Clear
9:15 AM 35.6 °F 26.6 °F 21.2 °F 56% 30.38 in 10.0 mi NW 13.8 mph 17.3 mph N/A   Clear
9:35 AM 37.4 °F 28.5 °F 21.2 °F 52% 30.38 in 10.0 mi NW 15.0 mph 19.6 mph N/A   Clear
9:55 AM 37.4 °F 29.3 °F 21.2 °F 52% 30.39 in 10.0 mi NW 12.7 mph - N/A   Clear
10:15 AM 41.0 °F 32.8 °F 21.2 °F 45% 30.39 in 10.0 mi NW 16.1 mph 21.9 mph N/A   Clear
10:35 AM 41.0 °F 31.9 °F 19.4 °F 42% 30.38 in 10.0 mi NNW 19.6 mph 26.5 mph N/A   Clear
10:55 AM 41.0 °F 31.9 °F 19.4 °F 42% 30.38 in 10.0 mi NNW 19.6 mph 26.5 mph N/A   Clear
11:15 AM 42.8 °F 34.5 °F 19.4 °F 39% 30.37 in 10.0 mi NNW 18.4 mph 26.5 mph N/A   Clear
11:35 AM 42.8 °F 34.0 °F 17.6 °F 36% 30.36 in 10.0 mi NNW 20.7 mph 24.2 mph N/A   Clear
11:55 AM 42.8 °F 34.3 °F 17.6 °F 36% 30.35 in 10.0 mi NNW 19.6 mph 24.2 mph N/A   Clear
12:15 PM 44.6 °F 37.4 °F 17.6 °F 34% 30.34 in 10.0 mi NW 16.1 mph 21.9 mph N/A   Clear
12:35 PM 44.6 °F 37.8 °F 17.6 °F 34% 30.33 in 10.0 mi NW 15.0 mph 18.4 mph N/A   Clear
12:55 PM 44.6 °F 38.1 °F 17.6 °F 34% 30.33 in 10.0 mi NW 13.8 mph - N/A   Clear
1:15 PM 46.4 °F 40.4 °F 15.8 °F 29% 30.32 in 10.0 mi NW 13.8 mph 18.4 mph N/A   Clear
1:35 PM 46.4 °F 40.4 °F 14.0 °F 27% 30.31 in 10.0 mi NW 13.8 mph - N/A   Clear
1:55 PM 44.6 °F 38.1 °F 14.0 °F 29% 30.30 in 10.0 mi NW 13.8 mph - N/A   Clear
2:15 PM 44.6 °F 39.2 °F 14.0 °F 29% 30.30 in 10.0 mi WNW 10.4 mph 18.4 mph N/A   Clear
2:35 PM 44.6 °F 39.2 °F 14.0 °F 29% 30.30 in 10.0 mi NW 10.4 mph - N/A   Clear
2:55 PM 44.6 °F 40.7 °F 14.0 °F 29% 30.30 in 10.0 mi NW 6.9 mph - N/A   Clear
3:15 PM 44.6 °F 39.7 °F 14.0 °F 29% 30.30 in 10.0 mi NW 9.2 mph - N/A   Clear
3:35 PM 42.8 °F 39.3 °F 14.0 °F 31% 30.29 in 10.0 mi NW 5.8 mph - N/A   Clear
3:50 PM 42.8 °F 39.3 °F 14.0 °F 31% 30.29 in 10.0 mi NW 5.8 mph - N/A   Clear
4:15 PM 41.0 °F 38.0 °F 15.8 °F 36% 30.29 in 10.0 mi WNW 4.6 mph - N/A   Clear
4:35 PM 35.6 °F 31.7 °F 17.6 °F 48% 30.28 in 10.0 mi West 4.6 mph - N/A   Clear
4:55 PM 33.8 °F 30.8 °F 19.4 °F 56% 30.28 in 10.0 mi West 3.5 mph - N/A   Clear
5:15 PM 32.0 °F 26.4 °F 19.4 °F 60% 30.27 in 10.0 mi WSW 5.8 mph - N/A   Clear
5:35 PM 28.4 °F 22.2 °F 17.6 °F 64% 30.27 in 10.0 mi WSW 5.8 mph - N/A   Clear
5:55 PM 26.6 °F 20.0 °F 17.6 °F 69% 30.27 in 10.0 mi WSW 5.8 mph - N/A   Clear
6:15 PM 26.6 °F 19.1 °F 17.6 °F 69% 30.27 in 10.0 mi SW 6.9 mph - N/A   Clear
6:35 PM 24.8 °F 16.9 °F 17.6 °F 74% 30.27 in 10.0 mi SW 6.9 mph - N/A   Clear
6:55 PM 24.8 °F 14.6 °F 15.8 °F 69% 30.26 in 10.0 mi SW 10.4 mph - N/A   Clear
7:15 PM 24.8 °F 16.9 °F 17.6 °F 74% 30.27 in 10.0 mi WSW 6.9 mph - N/A   Clear
7:35 PM 24.8 °F 16.9 °F 15.8 °F 69% 30.25 in 10.0 mi WSW 6.9 mph - N/A   Clear
7:55 PM 24.8 °F 16.9 °F 15.8 °F 69% 30.25 in 10.0 mi WSW 6.9 mph - N/A   Clear
8:15 PM 24.8 °F 16.1 °F 17.6 °F 74% 30.25 in 10.0 mi WSW 8.1 mph - N/A   Clear
8:35 PM 24.8 °F 16.9 °F 15.8 °F 69% 30.24 in 10.0 mi WSW 6.9 mph - N/A   Clear
8:55 PM 24.8 °F 15.3 °F 17.6 °F 74% 30.23 in 10.0 mi SW 9.2 mph - N/A   Clear
9:15 PM 24.8 °F 14.6 °F 17.6 °F 74% 30.22 in 10.0 mi WSW 10.4 mph - N/A   Clear
9:35 PM 24.8 °F 16.1 °F 17.6 °F 74% 30.21 in 10.0 mi SW 8.1 mph - N/A   Clear
9:55 PM 23.0 °F 14.7 °F 15.8 °F 74% 30.21 in 10.0 mi WSW 6.9 mph - N/A   Clear
10:15 PM 21.2 °F 10.9 °F 14.0 °F 74% 30.20 in 10.0 mi SW 9.2 mph - N/A   Clear
10:35 PM 21.2 °F 12.6 °F 14.0 °F 74% 30.20 in 10.0 mi WSW 6.9 mph - N/A   Clear
10:55 PM 21.2 °F 11.7 °F 14.0 °F 74% 30.20 in 10.0 mi WSW 8.1 mph - N/A   Clear
11:15 PM 21.2 °F 11.7 °F 15.8 °F 80% 30.19 in 10.0 mi WSW 8.1 mph - N/A   Clear
11:35 PM 21.2 °F 10.1 °F 14.0 °F 74% 30.18 in 10.0 mi West 10.4 mph - N/A   Clear
11:55 PM 21.2 °F 12.6 °F 15.8 °F 80% 30.18 in 10.0 mi West 6.9 mph - N/A   Clear